JST518 YMML-YMLT

Flight info

Callsign JST518
Flight time N/A
Altitude 33000
Route ML H169 IRSOM W105 LT
Aircraft A333/H-SDE3GHIJ2J3J5M1RVWXY/LB2D1

Departure

Time N/A
Airport Melbourne Airport (YMML)

Arrival

Time 2026-05-06 05:54
Airport Launceston Airport (YMLT)
Time Latitude Longitude Altitude Speed Heading
2026-05-06 05:21 -38.66752 145.30848 23296 ft 491 kts 158°
2026-05-06 05:21 -38.70906 145.33363 23764 ft 496 kts 158°
2026-05-06 05:21 -38.72969 145.34614 23984 ft 497 kts 158°
2026-05-06 05:21 -38.76109 145.36519 24318 ft 500 kts 158°
2026-05-06 05:22 -38.79259 145.38431 24649 ft 503 kts 158°
2026-05-06 05:22 -38.82424 145.40354 24976 ft 505 kts 158°
2026-05-06 05:22 -38.85610 145.42293 25296 ft 508 kts 158°
2026-05-06 05:22 -38.88670 145.44156 25597 ft 510 kts 158°
2026-05-06 05:23 -38.91823 145.46078 25934 ft 513 kts 158°
2026-05-06 05:23 -38.95064 145.48054 26200 ft 517 kts 158°
2026-05-06 05:23 -39.01586 145.52039 26841 ft 522 kts 157°
2026-05-06 05:24 -39.04655 145.53918 27093 ft 525 kts 157°
2026-05-06 05:24 -39.07946 145.55934 27373 ft 527 kts 157°
2026-05-06 05:24 -39.10862 145.57722 27650 ft 529 kts 157°
2026-05-06 05:24 -39.14192 145.59766 27943 ft 532 kts 157°
2026-05-06 05:25 -39.17548 145.61827 28219 ft 535 kts 157°
2026-05-06 05:25 -39.20913 145.63897 28478 ft 538 kts 157°
2026-05-06 05:25 -39.24299 145.65981 28772 ft 540 kts 157°
2026-05-06 05:25 -39.27698 145.68077 29042 ft 543 kts 157°
2026-05-06 05:26 -39.31111 145.70184 29302 ft 545 kts 157°
2026-05-06 05:26 -39.34535 145.72299 29576 ft 547 kts 157°
2026-05-06 05:26 -39.37665 145.74235 29806 ft 549 kts 157°
2026-05-06 05:26 -39.40078 145.75728 29982 ft 551 kts 157°
2026-05-06 05:27 -39.43532 145.77868 30250 ft 552 kts 157°
2026-05-06 05:27 -39.46994 145.80016 30501 ft 552 kts 157°
2026-05-06 05:27 -39.50460 145.82169 30796 ft 552 kts 157°
2026-05-06 05:27 -39.53925 145.84323 31108 ft 552 kts 157°
2026-05-06 05:28 -39.57383 145.86475 31419 ft 552 kts 157°
2026-05-06 05:28 -39.60843 145.88631 31723 ft 551 kts 157°
2026-05-06 05:28 -39.64300 145.90787 32023 ft 551 kts 157°
2026-05-06 05:28 -39.67715 145.92919 32292 ft 552 kts 157°
2026-05-06 05:29 -39.71211 145.95104 32605 ft 551 kts 157°
2026-05-06 05:29 -39.74672 145.97271 32894 ft 551 kts 157°
2026-05-06 05:29 -39.78121 145.99431 33138 ft 552 kts 157°
2026-05-06 05:29 -39.81531 146.01570 33428 ft 551 kts 157°
2026-05-06 05:30 -39.84986 146.03739 33714 ft 551 kts 157°
2026-05-06 05:30 -39.88438 146.05909 34000 ft 551 kts 157°
2026-05-06 05:30 -39.91889 146.08081 34229 ft 551 kts 157°
2026-05-06 05:30 -39.95336 146.10252 34463 ft 550 kts 157°
2026-05-06 05:31 -39.98781 146.12425 34676 ft 550 kts 157°
2026-05-06 05:31 -40.02220 146.14596 34914 ft 550 kts 157°
2026-05-06 05:31 -40.05660 146.16771 35147 ft 549 kts 157°
2026-05-06 05:31 -40.09097 146.18946 35376 ft 549 kts 157°
2026-05-06 05:32 -40.12530 146.21121 35616 ft 548 kts 158°
2026-05-06 05:32 -40.15965 146.23299 35822 ft 548 kts 158°
2026-05-06 05:32 -40.19387 146.25473 35944 ft 542 kts 158°
2026-05-06 05:32 -40.22750 146.27615 35694 ft 534 kts 158°
2026-05-06 05:33 -40.26076 146.29735 35191 ft 532 kts 158°
2026-05-06 05:33 -40.29411 146.31858 34515 ft 534 kts 157°
2026-05-06 05:33 -40.32771 146.33996 33694 ft 539 kts 157°
2026-05-06 05:33 -40.36160 146.36156 32856 ft 543 kts 157°
2026-05-06 05:34 -40.39567 146.38331 31989 ft 547 kts 156°
2026-05-06 05:34 -40.42998 146.40526 31339 ft 547 kts 156°
2026-05-06 05:34 -40.46391 146.42703 30963 ft 539 kts 156°
2026-05-06 05:34 -40.49738 146.44853 30231 ft 532 kts 156°
2026-05-06 05:35 -40.53046 146.46981 29238 ft 527 kts 156°
2026-05-06 05:35 -40.56308 146.49079 28454 ft 517 kts 156°
2026-05-06 05:35 -40.59499 146.51136 27857 ft 505 kts 156°
2026-05-06 05:35 -40.62614 146.53145 27242 ft 494 kts 156°
2026-05-06 05:36 -40.65671 146.55118 26618 ft 484 kts 156°
2026-05-06 05:36 -40.68665 146.57051 25980 ft 475 kts 156°
2026-05-06 05:36 -40.71609 146.58953 25363 ft 467 kts 156°
2026-05-06 05:36 -40.74505 146.60825 24772 ft 460 kts 156°
2026-05-06 05:37 -40.77358 146.62672 24168 ft 455 kts 156°
2026-05-06 05:37 -40.80211 146.64517 23561 ft 458 kts 156°
2026-05-06 05:37 -40.83081 146.66376 22882 ft 461 kts 156°
2026-05-06 05:37 -40.85958 146.68241 22260 ft 462 kts 156°
2026-05-06 05:38 -40.88847 146.70118 21617 ft 462 kts 156°
2026-05-06 05:38 -40.91731 146.71994 20984 ft 462 kts 156°
2026-05-06 05:38 -40.94616 146.73872 20357 ft 463 kts 156°
2026-05-06 05:38 -40.97496 146.75750 19856 ft 459 kts 156°
2026-05-06 05:39 -41.00356 146.77618 19384 ft 456 kts 156°
2026-05-06 05:39 -41.03186 146.79469 18916 ft 452 kts 156°
2026-05-06 05:39 -41.05996 146.81307 18413 ft 450 kts 156°
2026-05-06 05:39 -41.08788 146.83134 17950 ft 446 kts 156°
2026-05-06 05:40 -41.11517 146.84922 17461 ft 442 kts 156°
2026-05-06 05:40 -41.14265 146.86724 16925 ft 439 kts 156°
2026-05-06 05:40 -41.16986 146.88509 16418 ft 435 kts 156°
2026-05-06 05:40 -41.19694 146.90288 15911 ft 431 kts 156°
2026-05-06 05:41 -41.22367 146.92045 15424 ft 428 kts 156°
2026-05-06 05:41 -41.25023 146.93794 14964 ft 423 kts 156°
2026-05-06 05:41 -41.27632 146.95518 14641 ft 415 kts 156°
2026-05-06 05:41 -41.30218 146.97225 14027 ft 415 kts 157°
2026-05-06 05:42 -41.32796 146.98925 13600 ft 411 kts 157°
2026-05-06 05:42 -41.35322 147.00593 13410 ft 399 kts 157°
2026-05-06 05:42 -41.37776 147.02214 13238 ft 388 kts 157°
2026-05-06 05:42 -41.40157 147.03790 13058 ft 377 kts 158°
2026-05-06 05:43 -41.42473 147.05319 12846 ft 366 kts 158°
2026-05-06 05:43 -41.44724 147.06800 12695 ft 356 kts 158°
2026-05-06 05:43 -41.46912 147.08250 12486 ft 347 kts 158°
2026-05-06 05:43 -41.49074 147.09672 12111 ft 345 kts 158°
2026-05-06 05:44 -41.51214 147.11092 11786 ft 343 kts 158°
2026-05-06 05:44 -41.53341 147.12514 11454 ft 341 kts 158°
2026-05-06 05:44 -41.55451 147.13931 11132 ft 339 kts 158°
2026-05-06 05:44 -41.57549 147.15346 10812 ft 336 kts 158°
2026-05-06 05:45 -41.59643 147.16746 10335 ft 339 kts 158°
2026-05-06 05:45 -41.61783 147.18160 9710 ft 347 kts 158°
2026-05-06 05:45 -41.63966 147.19603 9031 ft 353 kts 158°
2026-05-06 05:45 -41.66152 147.21055 8714 ft 347 kts 158°
2026-05-06 05:46 -41.68258 147.22486 8504 ft 332 kts 154°
2026-05-06 05:46 -41.69955 147.24468 8211 ft 320 kts 123°
2026-05-06 05:46 -41.70703 147.27150 7938 ft 302 kts 92°
2026-05-06 05:46 -41.70665 147.29863 7619 ft 283 kts 70°
2026-05-06 05:47 -41.69771 147.32034 7207 ft 256 kts 33°
2026-05-06 05:47 -41.68300 147.33003 6786 ft 229 kts 356°
2026-05-06 05:47 -41.66883 147.32524 6554 ft 205 kts 319°
2026-05-06 05:47 -41.65807 147.31268 6377 ft 206 kts 314°
2026-05-06 05:48 -41.64826 147.29925 6139 ft 198 kts 302°
2026-05-06 05:48 -41.64480 147.28194 5898 ft 196 kts 270°
2026-05-06 05:48 -41.65012 147.26509 5658 ft 205 kts 236°
2026-05-06 05:48 -41.66258 147.25502 5426 ft 220 kts 202°
2026-05-06 05:49 -41.67804 147.25593 5206 ft 230 kts 167°
2026-05-06 05:49 -41.69124 147.26810 4967 ft 235 kts 131°
2026-05-06 05:49 -41.69780 147.28774 4735 ft 231 kts 95°
2026-05-06 05:49 -41.69570 147.30816 4504 ft 216 kts 57°
2026-05-06 05:50 -41.68634 147.32226 4271 ft 195 kts 19°
2026-05-06 05:50 -41.67417 147.32551 4022 ft 170 kts 343°
2026-05-06 05:50 -41.66390 147.31933 3710 ft 161 kts 311°
2026-05-06 05:50 -41.65686 147.30765 3381 ft 164 kts 307°
2026-05-06 05:51 -41.64858 147.29666 2964 ft 173 kts 318°
2026-05-06 05:51 -41.63864 147.28739 2597 ft 172 kts 323°
2026-05-06 05:51 -41.62862 147.27946 2307 ft 163 kts 328°
2026-05-06 05:51 -41.61896 147.27240 1989 ft 153 kts 326°
2026-05-06 05:52 -41.61039 147.26533 1833 ft 136 kts 326°
2026-05-06 05:52 -41.60235 147.25923 1717 ft 132 kts 326°
2026-05-06 05:52 -41.59431 147.25317 1504 ft 133 kts 330°
2026-05-06 05:52 -41.58653 147.24680 1275 ft 130 kts 329°
2026-05-06 05:53 -41.57900 147.24037 1185 ft 131 kts 328°
2026-05-06 05:53 -41.57134 147.23382 1051 ft 130 kts 327°
2026-05-06 05:53 -41.56375 147.22709 884 ft 129 kts 327°
2026-05-06 05:53 -41.55636 147.22076 733 ft 127 kts 330°
2026-05-06 05:54 -41.54921 147.21459 594 ft 109 kts 329°
2026-05-06 05:54 -41.54426 147.21033 598 ft 38 kts 326°
2026-05-06 05:54 -41.54308 147.20917 596 ft 13 kts 304°
2026-05-06 05:54 -41.54312 147.20828 589 ft 3 kts 247°
2026-05-06 05:55 -41.54314 147.20821 589 ft 0 kts 248°
2026-05-06 05:55 -41.54316 147.20813 588 ft 3 kts 248°
2026-05-06 05:56 -41.54323 147.20788 588 ft 4 kts 250°
2026-05-06 05:56 -41.54330 147.20764 587 ft 3 kts 252°
2026-05-06 05:56 -41.54328 147.20732 587 ft 4 kts 282°
2026-05-06 05:56 -41.54327 147.20729 587 ft 0 kts 284°
2026-05-06 05:57 -41.54327 147.20728 587 ft 0 kts 283°
2026-05-06 05:57 -41.54326 147.20722 587 ft 1 kts 282°
2026-05-06 05:57 -41.54321 147.20704 587 ft 3 kts 289°
2026-05-06 05:57 -41.54318 147.20692 587 ft 0 kts 292°
2026-05-06 06:05 -41.58157 147.24260 1214 ft 1 kts 326°
2026-05-06 06:06 -41.57264 147.23495 1075 ft 105 kts 328°
2026-05-06 06:06 -41.56359 147.22695 881 ft 100 kts 327°
2026-05-06 06:06 -41.55463 147.21927 678 ft 99 kts 328°
2026-05-06 06:06 -41.54750 147.21312 593 ft 38 kts 327°